Location: Caixon
(43.4106°N, 0.0273°E)
Time: 22:47:18
(UTC+00:00)

Cosmos 2151 Rocket - Pass Details

Date: 16 October 2021
Orbit: 618 x 641 km, 82.5° (Epoch: 07 December)

Event Time Altitude Azimuth Distance (km) Brightness Sun altitude
Rises 04:19:41 0° 355° (N) 2,904 7.1 -21.7°
Reaches altitude 10° 04:21:57 10° 359° (N) 1,993 6.2 -21.3°
Maximum altitude 04:26:19 59° 79° (E) 719 4.1 -20.5°
Drops below altitude 10° 04:30:39 10° 160° (SSE) 1,984 6.3 -19.7°
Sets 04:32:54 0° 164° (SSE) 2,888 7.1 -19.3°
